[Iaude] MPEC E57: 2019 EG1 [a=1.23,e=0.27,i=12.2,H=26.0]

mpec at mpcdb1.cfa.harvard.edu mpec at mpcdb1.cfa.harvard.edu
Wed Mar 6 11:05:17 EST 2019


M.P.E.C. 2019-E57                                Issued 2019 Mar. 6, 16:01 UT
 
     The Minor Planet Electronic Circulars contain information on unusual
         minor planets and routine data on comets.  They are published
    on behalf of Division F of the International Astronomical Union by the
          Minor Planet Center, Smithsonian Astrophysical Observatory,
                          Cambridge, MA 02138, U.S.A.

             Prepared using the Tamkin Foundation Computer Network

                              MPC at CFA.HARVARD.EDU
            URL https://www.minorplanetcenter.net/    ISSN 1523-6714


                                   2019 EG1
 
Observations:
     K19E01G* C2019 03 05.46172 15 14 47.70 +33 54 18.8          20.4 GVEE057G96
     K19E01G  C2019 03 05.46691 15 14 41.50 +33 55 20.0          20.2 GVEE057G96
     K19E01G  C2019 03 05.47210 15 14 35.39 +33 56 20.2          19.3 GVEE057G96
     K19E01G  C2019 03 05.47732 15 14 29.25 +33 57 20.6          20.3 GVEE057G96
     K19E01G  C2019 03 05.50200715 13 58.79 +34 01 50.4          20.0 GVEE057H01
     K19E01G  C2019 03 05.50491915 13 55.41 +34 02 22.8          19.9 GVEE057H01
     K19E01G  C2019 03 05.50682 15 13 54.67 +34 02 55.1          19.9 GVEE057I52
     K19E01G  C2019 03 05.50738 15 13 54.12 +34 02 59.4          19.3 GVEE057I52
     K19E01G  C2019 03 05.50794 15 13 53.36 +34 03 07.4          20.2 GVEE057I52
     K19E01G  C2019 03 05.51120715 13 48.11 +34 03 32.5          19.3 GVEE057H01
     K19E01G  C2019 03 05.52266015 13 34.87 +34 05 38.1          19.2 GVEE057H01
     K19E01G KC2019 03 05.93868 15 07 26.39 +35 14 03.8          20.3 GVEE057587
     K19E01G KC2019 03 05.93975 15 07 25.41 +35 14 14.7                VEE057587
     K19E01G KC2019 03 05.94083 15 07 24.42 +35 14 25.9                VEE057587
     K19E01G KC2019 03 06.07347615 05 17.58 +35 36 17.4          20.4 GVEE057L01
     K19E01G KC2019 03 06.07476815 05 16.32 +35 36 29.4          20.3 GVEE057L01
     K19E01G KC2019 03 06.07657715 05 14.58 +35 36 45.4          20.3 GVEE057L01
     K19E01G KC2019 03 06.07837815 05 12.85 +35 37 01.9          20.1 GVEE057L01
     K19E01G KC2019 03 06.08017715 05 11.09 +35 37 18.6          20.2 GVEE057L01
     K19E01G  C2019 03 06.36196 15 01 27.70 +36 17 32.0          19.9 GVEE057I52
     K19E01G  C2019 03 06.36293 15 01 26.76 +36 17 40.2          20.7 GVEE057I52
     K19E01G  C2019 03 06.36390 15 01 25.93 +36 17 48.7          19.7 GVEE057I52
 
Observer details:
587 Sormano.  Observers A. Fumagalli, P. Sicoli, A. Testa.  Measurer
    P. Sicoli.  0.5-m f/6.8 reflector + CCD.
G96 Mt. Lemmon Survey.  Observer E. J. Christensen.  Measurers B. M. Africano,
    E. J. Christensen, G. A. Farneth, D. C. Fuls, A. R. Gibbs, A. D. Grauer,
    H. Groeller, R. A. Kowalski, S. M. Larson, G. J. Leonard, T. A. Pruyne,
    R. L. Seaman, F. C. Shelly.  1.5-m reflector + 10K CCD.
H01 Magdalena Ridge Observatory, Socorro.  Observers W. H. Ryan, E. V. Ryan.
    Measurer W. H. Ryan.  2.4-m f/8.9 Ritchey-Chretien + CCD.
I52 Steward Observatory, Mt. Lemmon Station.  Observers D. C. Fuls,
    T. A. Pruyne.  Measurers B. M. Africano, E. J. Christensen, G. A. Farneth,
    D. C. Fuls, A. R. Gibbs, A. D. Grauer, H. Groeller, R. A. Kowalski,
    S. M. Larson, G. J. Leonard, T. A. Pruyne, R. L. Seaman, F. C. Shelly.
    1.0-m reflector + CCD.
L01 Visnjan Observatory, Tican.  Observers K. Korlevic, F. Valentine.
    Measurer K. Korlevic.  1.0-m f/2.9 reflector + CCD.
 
Orbital elements:
2019 EG1                                                 Earth MOID = 0.0034 AU
Epoch 2019 Apr. 27.0 TT = JDT 2458600.5                 MPC
M  72.61450              (2000.0)            P               Q
n   0.72048713     Peri.  306.94284     -0.30006641     -0.95121435
a   1.2323060      Node   160.15080     +0.92856944     -0.30849469
e   0.2671447      Incl.   12.20327     +0.21844668     +0.00472092
P   1.37           H   26.0           G   0.15           U   7
Residuals in seconds of arc
190305 G96  0.5+  0.5-    190305 I52  0.1-  0.0     190306 L01  0.0   0.3-
190305 G96  0.4-  0.2+    190305 H01  0.0   0.2+    190306 L01  0.2+  0.4-
190305 G96  0.3-  0.1+    190305 H01  0.1+  0.0     190306 L01  0.1-  0.3-
190305 G96  0.2-  0.2+    190305 587  0.1-  0.2-    190306 I52  0.5+  0.1+
190305 H01  0.2-  0.2+    190305 587  0.0   0.3-    190306 I52  0.3-  0.1-
190305 H01  0.0   0.2+    190305 587  0.0   0.2-    190306 I52  0.1+  0.0
190305 I52  0.0   0.2+    190306 L01  0.0   0.4+
190305 I52  1.2+  1.7-    190306 L01  0.1-  0.5+

Ephemeris:
2019 EG1                 a,e,i = 1.23, 0.27, 12                  q = 0.9031
Date    TT    R. A. (2000) Decl.     Delta      r     Elong.  Phase     V
2019 02 04    00 58 38.3 -47 02 00   0.1280  0.9205    56.1   117.3    26.0
...
2019 02 19    00 35 36.8 -50 03 43   0.05210 0.9550    49.0   128.6    25.1
...
2019 02 27    21 22 26.9 -48 08 20   0.01417 0.9798    42.6   136.8    23.2
...
2019 03 05    15 23 12.7 +32 15 58   0.02188 1.0007   113.9    65.0    20.0
2019 03 06    15 06 14.5 +35 26 11   0.02653 1.0044   117.3    61.3    20.3
2019 03 07    14 53 29.6 +37 33 10   0.03131 1.0081   119.7    58.7    20.6
...
2019 03 13    14 14 52.4 +42 28 43   0.06093 1.0310   126.3    51.0    21.9
...
2019 03 21    13 53 56.4 +43 40 22   0.1013  1.0632   129.5    46.3    22.9
...
2019 04 05    13 33 15.8 +42 13 07   0.1795  1.1265   131.2    41.9    24.2

A. U. Tomatic                (C) Copyright 2019 MPC           M.P.E.C. 2019-E57



More information about the Iaude mailing list